This demonstration page uses our WeatherBlox Daily Observations layout. Learn more.

Left ArrowRight Arrow

34.02893, -84.19858

Hourly Observations for October 30, 2021

Temp ( °F °C ) Dew Point ( °F °C ) Humidity (%) Winds ( mph kmh ) Pressure ( in mb ) Visibility ( mi km ) Precip ( " mm )
12:01 am 00:01 Cloudy 50 10 49 9.4 96 96 W 5 7 29.64 1004 10 16 0.00 0.00
12:53 am 00:53 Cloudy 51 10.6 49 9.4 92 92 W 6 9 29.62 1003 10 16 0.00 0.00
1:23 am 01:23 Cloudy 51 10.6 49 9.4 92 92 WSW 5 7 29.63 1003 10 16 0.00 0.00
1:53 am 01:53 Cloudy 50 10 49 9.4 96 96 W 6 9 29.62 1003 10 16 0.00 0.00
2:53 am 02:53 Cloudy 51 10.6 49 9.4 92 92 Calm 29.62 1003 10 16 0.00 0.00
3:11 am 03:11 Cloudy 51 10.6 50 10 96 96 Calm 29.62 1003 10 16 0.00 0.00
3:53 am 03:53 Cloudy 51 10.6 49 9.4 92 92 WSW 7 11 29.60 1003 10 16 0.00 0.00
4:53 am 04:53 Cloudy 51 10.6 49 9.4 92 92 W 5 7 29.60 1003 10 16 0.00 0.00
5:53 am 05:53 Cloudy 51 10.6 50 10 96 96 SSW 3 6 29.62 1003 10 16 0.00 0.00
6:53 am 06:53 Cloudy 52 11.1 50 10 93 93 WSW 8 13 29.62 1003 10 16 0.00 0.00
7:53 am 07:53 Cloudy 52 11.1 51 10.6 97 97 SW 6 9 29.63 1003 10 16 0.00 0.00
8:53 am 08:53 Cloudy 53 11.7 51 10.6 93 93 WSW 8 13 29.65 1004 7 11 0.00 0.00
9:45 am 09:45 Cloudy 54 12.2 52 11.1 93 93 SW 7 11 29.67 1005 10 16 0.00 0.00
9:53 am 09:53 Cloudy 54 12.2 52 11.1 93 93 SW 7 11 29.67 1005 10 16 0.00 0.00
10:53 am 10:53 Cloudy 55 12.8 52 11.1 90 90 WSW 8 13 29.69 1005 10 16 0.00 0.00
11:00 am 11:00 Cloudy 55 12.8 52 11.1 90 90 WSW 7 11 29.68 1005 10 16 0.00 0.00
11:18 am 11:18 Cloudy with Light Rain 54 12.2 53 11.7 97 97 W 7 11 29.68 1005 5 8 0.00 0.00
11:49 am 11:49 Cloudy 55 13 54 12 94 94 WSW 8 13 29.69 1005 10 16 0.00 0.00
11:53 am 11:53 Cloudy 55 12.8 53 11.7 93 93 WSW 8 13 29.68 1005 10 16 0.00 0.00
12:53 pm 12:53 Cloudy 56 13.3 52 11.1 87 87 WSW 8 13 29.68 1005 10 16 0.00 0.00
1:53 pm 13:53 Mostly Cloudy 58 14.4 51 10.6 78 78 WSW 12 19 29.66 1004 10 16 0.01 0.25
2:08 pm 14:08 Cloudy 57 13.9 50 10 78 78 WSW 12 19 29.66 1004 10 16 0.00 0.00
2:53 pm 14:53 Cloudy with Light Rain 56 13.3 50 10 81 81 WSW 9 15 29.66 1004 10 16 0.00 0.00
3:53 pm 15:53 Cloudy 54 12.2 52 11.1 93 93 WSW 10 17 29.68 1005 10 16 0.00 0.00
4:04 pm 16:04 Cloudy with Light Rain 54 12.2 51 10.6 90 90 WSW 12 19 29.68 1005 10 16 0.00 0.00
4:50 pm 16:50 Cloudy with Light Rain 54 12 52 11 94 94 W 12 19 29.70 1006 4 6 0.00 0.00
4:53 pm 16:53 Cloudy with Light Rain 53 11.7 51 10.6 93 93 W 10 17 29.70 1006 2 3 0.00 0.00
5:53 pm 17:53 Cloudy with Light Rain 53 11.7 52 11.1 96 96 W 9 15 29.71 1006 3 4 0.00 0.00
6:03 pm 18:03 Cloudy with Light Rain 53 11.7 52 11.1 96 96 W 7 11 29.71 1006 2 3 0.01 0.25
6:19 pm 18:19 Cloudy with Light Rain 53 11.7 51 10.6 93 93 WSW 9 15 29.72 1007 4 6 0.01 0.25
6:53 pm 18:53 Cloudy with Mist and Fog 53 11.7 51 10.6 93 93 W 6 9 29.73 1007 6 10 0.01 0.25
7:53 pm 19:53 Cloudy 53 11.7 51 10.6 93 93 W 5 7 29.75 1007 10 16 0.00 0.00
8:43 pm 20:43 Cloudy 53 11.7 51 10.6 93 93 W 8 13 29.76 1008 10 16 0.00 0.00
8:53 pm 20:53 Cloudy 53 11.7 51 10.6 93 93 W 9 15 29.76 1008 10 16 0.00 0.00
9:50 pm 21:50 Cloudy 54 12 52 11 94 94 W 8 13 29.78 1009 10 16 0.00 0.00
9:53 pm 21:53 Cloudy 53 11.7 51 10.6 93 93 W 8 13 29.78 1008 10 16 0.00 0.00
10:53 pm 22:53 Cloudy 53 11.7 51 10.6 93 93 W 7 11 29.80 1009 10 16 0.00 0.00
11:08 pm 23:08 Cloudy 53 11.7 51 10.6 93 93 W 7 11 29.80 1009 10 16 0.00 0.00
11:51 pm 23:51 Cloudy 54 12 52 11 94 94 W 8 13 29.80 1009 10 16 0.00 0.00
11:53 pm 23:53 Cloudy 53 11.7 51 10.6 93 93 WNW 8 13 29.80 1009 10 16 0.00 0.00

Powered by AerisWeather